Regional Weather Roundup
Issued by NWS

Home | Current Version | Previous Version | Text Only | Print | Product List | Glossary On
Versions: 1 2 3 4 5 6 7 8 9 10 11 12 13 14 15 16 17 18 19 20 21 22 23 24 25 26 27 28 29 30 31 32 33 34 35 36 37 38 39 40 41 42 43 44 45 46 47 48 49 50
000
ASUS43 KBIS 281120
RWRND

NORTH DAKOTA REGIONAL WEATHER ROUNDUP
NATIONAL WEATHER SERVICE BISMARCK ND
600 AM CDT SAT MAR 28 2015

NOTE: "FAIR" INDICATES FEW OR NO CLOUDS BELOW 12,000 FEET WITH NO
SIGNIFICANT WEATHER AND/OR OBSTRUCTIONS TO VISIBILITY.


NDZ001>003-009>011-017-281200-
NORTHWEST NORTH DAKOTA

CITY           SKY/WX    TMP DP  RH WIND       PRES   REMARKS
WILLISTON      CLEAR     32  30  92 CALM      29.83F
MINOT          FOG       26  24  92 SE10      29.91F VSB 1/4 WCI  16
MINOT AFB      FRZ DRZL  27  27 100 SE9       29.91S VSB 1/2 WCI  18
$$

NDZ018>021-031>035-040>046-281200-
SOUTHWEST NORTH DAKOTA

CITY           SKY/WX    TMP DP  RH WIND       PRES   REMARKS
BISMARCK       FOG       29  29 100 SE9       29.98F VSB 1/2
DICKINSON      CLEAR     34  30  85 S12       29.86F
GARRISON         N/A     26  25  96 E7        29.92F WCI  18
HETTINGER ARPT CLEAR     33  28  81 SE5       29.91F
$$

NDZ004>008-012>016-024-026-027-054-281200-
NORTHEAST NORTH DAKOTA

CITY           SKY/WX    TMP DP  RH WIND       PRES   REMARKS
GRAND FORKS    MOCLDY    21  16  81 SE8       30.09S WCI  11
GRND FRKS AFB  CLOUDY    25  21  87 S7        30.08R WCI  17
DEVILS LAKE    CLOUDY    28  25  86 S10       30.00S WCI  19
$$

NDZ022-023-025-028>030-036>039-047>053-281200-
SOUTHEAST NORTH DAKOTA

CITY           SKY/WX    TMP DP  RH WIND       PRES   REMARKS
FARGO          PTCLDY    27  17  66 SE14      30.10F WCI  16
JAMESTOWN      CLOUDY    29  27  92 S12       30.02S WCI  19
$$



USA.gov is the U.S. government's official web portal to all federal, state and local government web resources and services.